Flora, IL

4:27 AM CST on February 21, 2017 (GMT -0600)
Flora Municipal

Weather History for KFOA - March, 2013

Change the Weather History Date:

Tuesday, March 5, 2013

  Actual Average (KSLO) Record (KSLO)
Temperature  
Mean Temperature 36 °F -  
Max Temperature 41 °F 51 °F 70 °F (1976)
Min Temperature 31 °F 29 °F -8 °F (1978)
Degree Days  
Heating Degree Days 29    
Moisture  
Dew Point 31 °F    
Average Humidity 86    
Maximum Humidity 100    
Minimum Humidity 65    
Precipitation  
Precipitation 0.03 in - - ()
Sea Level Pressure  
Sea Level Pressure 29.86 in    
Wind  
Wind Speed 11 mph (NW)    
Max Wind Speed 30 mph    
Max Gust Speed 40 mph    
Visibility 7 miles    
Events Rain , Snow    
Averages and records for this station are not official NWS values.
T = Trace of Precipitation, MM = Missing Value Source: NWS Daily Summary

Daily Weather History Graph

Daily Weather History Graph

Search for Another Location

Airport or City:

Trip Planner

Search our weather history database for the weather conditions in past years. The results will help you decide how hot, cold, wet, or windy it might be!

Date:

Astronomy

Mar. 05, 2013 Rise Set
Actual Time 6:19 AM CST 5:51 PM CST
Civil Twilight 5:53 AM CST 6:17 PM CST
Nautical Twilight 5:22 AM CST 6:48 PM CST
Astronomical Twilight 4:51 AM CST 7:19 PM CST
Moon 1:28 AM CST (3/5) 11:33 AM CST (3/5)
Length of Visible Light 12h 24m
Length of Day
11h 31m
Last Quarter, 40% of the Moon is Illuminated
Mar 5
Last Quarter
Mar 11
New
Mar 19
First Quarter
Mar 27
Full
Apr 2
Last Quarter

Hourly Weather History & Observations

Time (CST) Temp. Windchill Dew Point Humidity Pressure Visibility Wind Dir Wind Speed Gust Speed Precip Events Conditions
12:35 AM 41.2 °F 37.3 °F 30.4 °F 65% 29.82 in 10.0 mi East 5.8 mph - N/A   Overcast
12:55 AM 41.0 °F 36.4 °F 30.7 °F 67% 29.82 in 10.0 mi NE 6.9 mph - N/A   Overcast
1:15 AM 41.0 °F 38.0 °F 30.2 °F 65% 29.83 in 10.0 mi ENE 4.6 mph - N/A   Overcast
1:35 AM 41.0 °F 38.0 °F 31.8 °F 70% 29.81 in 10.0 mi ENE 4.6 mph - N/A   Overcast
1:55 AM 40.5 °F 37.3 °F 32.0 °F 72% 29.81 in 10.0 mi NE 4.6 mph - N/A Rain Rain
2:15 AM 40.3 °F 38.2 °F 32.9 °F 75% 29.81 in 10.0 mi ENE 3.5 mph - N/A Rain Rain
2:35 AM 39.6 °F 36.3 °F 32.9 °F 77% 29.80 in 7.0 mi NNE 4.6 mph - N/A   Light Drizzle
2:55 AM 39.4 °F 36.1 °F 32.9 °F 78% 29.80 in 10.0 mi NNE 4.6 mph - N/A   Mostly Cloudy
3:15 AM 39.4 °F 37.2 °F 32.7 °F 77% 29.80 in 10.0 mi NE 3.5 mph - N/A   Overcast
3:35 AM 39.0 °F 35.7 °F 33.3 °F 80% 29.80 in 5.0 mi NE 4.6 mph - N/A   Drizzle
3:55 AM 37.9 °F 34.4 °F 34.5 °F 87% 29.80 in 5.0 mi NE 4.6 mph - N/A   Drizzle
4:15 AM 37.4 °F 32.1 °F 35.6 °F 93% 29.80 in 5.0 mi NE 6.9 mph - N/A   Drizzle
4:35 AM 37.6 °F 32.3 °F 36.3 °F 95% 29.79 in 10.0 mi NE 6.9 mph - 0.01 in   Overcast
4:55 AM 37.8 °F 33.3 °F 36.5 °F 95% 29.79 in 10.0 mi ENE 5.8 mph - 0.01 in   Overcast
5:15 AM 37.9 °F 35.5 °F 36.5 °F 95% 29.81 in 10.0 mi East 3.5 mph - N/A   Overcast
5:35 AM 37.9 °F 35.5 °F 36.7 °F 95% 29.81 in 7.0 mi NE 3.5 mph - N/A   Overcast
5:55 AM 37.8 °F 34.2 °F 36.7 °F 96% 29.80 in 7.0 mi NNE 4.6 mph - N/A   Overcast
6:15 AM 37.4 °F - 37.4 °F 100% 29.80 in 7.0 mi Calm Calm - N/A   Overcast
6:35 AM 37.4 °F - 37.4 °F 100% 29.80 in 7.0 mi Calm Calm - N/A   Overcast
6:55 AM 37.9 °F - 37.2 °F 97% 29.81 in 5.0 mi Calm Calm - N/A   Overcast
7:15 AM 37.9 °F 34.4 °F 37.4 °F 98% 29.80 in 5.0 mi NNW 4.6 mph - N/A   Overcast
7:35 AM 37.9 °F 34.4 °F 37.2 °F 97% 29.78 in 7.0 mi NNE 4.6 mph - N/A   Overcast
7:55 AM 39.2 °F 35.9 °F 37.4 °F 93% 29.77 in 7.0 mi North 4.6 mph - N/A   Mostly Cloudy
8:15 AM 38.8 °F 36.5 °F 37.6 °F 95% 29.80 in 7.0 mi WNW 3.5 mph - N/A   Mostly Cloudy
8:35 AM 39.2 °F 34.2 °F 37.4 °F 93% 29.80 in 7.0 mi West 6.9 mph - N/A   Overcast
8:55 AM 39.4 °F 34.5 °F 37.8 °F 94% 29.81 in 7.0 mi WNW 6.9 mph - N/A   Overcast
9:15 AM 40.3 °F 33.9 °F 38.5 °F 93% 29.79 in 7.0 mi WNW 10.4 mph - N/A   Overcast
9:35 AM 40.5 °F 34.1 °F 38.7 °F 93% 29.80 in 7.0 mi WNW 10.4 mph - N/A   Overcast
9:55 AM 40.5 °F 34.1 °F 35.6 °F 83% 29.79 in 10.0 mi NW 10.4 mph 17.3 mph N/A   Overcast
10:15 AM 39.0 °F 28.8 °F 32.4 °F 77% 29.80 in 10.0 mi WNW 21.9 mph 27.6 mph N/A   Overcast
10:35 AM 37.4 °F 26.9 °F 32.0 °F 81% 29.81 in 10.0 mi WNW 20.7 mph 29.9 mph N/A Rain Light Rain
10:55 AM 35.2 °F 25.0 °F 32.4 °F 89% 29.81 in 3.0 mi WNW 17.3 mph 26.5 mph 0.01 in Snow Light Snow
11:15 AM 34.5 °F 23.4 °F 33.3 °F 95% 29.81 in 2.0 mi WNW 19.6 mph 25.3 mph N/A Rain Light Rain
11:35 AM 33.6 °F 23.3 °F 32.9 °F 97% 29.83 in 1.5 mi WNW 16.1 mph 24.2 mph N/A Snow Light Snow
11:55 AM 32.5 °F 22.3 °F 32.2 °F 99% 29.82 in 0.2 mi WNW 15.0 mph 23.0 mph 0.01 in Snow Snow
12:15 PM 32.5 °F 21.9 °F 32.2 °F 99% 29.82 in 0.8 mi WNW 16.1 mph 25.3 mph N/A Snow Light Snow
12:35 PM 32.4 °F 20.6 °F 32.0 °F 99% 29.82 in 0.8 mi WNW 19.6 mph 25.3 mph N/A Snow Snow
12:55 PM 32.4 °F 20.6 °F 32.0 °F 99% 29.83 in 0.5 mi WNW 19.6 mph 27.6 mph N/A Snow Light Snow
1:15 PM 32.0 °F 20.5 °F 32.0 °F 100% 29.82 in 0.2 mi WNW 18.4 mph 26.5 mph N/A Snow Snow
1:35 PM 32.0 °F 21.2 °F 32.0 °F 100% 29.83 in 0.2 mi WNW 16.1 mph 24.2 mph N/A Snow Snow
1:55 PM 32.2 °F 19.7 °F 32.0 °F 99% 29.83 in 1.5 mi WNW 21.9 mph 27.6 mph N/A Snow Light Snow
2:15 PM 32.4 °F 20.3 °F 32.0 °F 99% 29.85 in 1.0 mi WNW 20.7 mph 26.5 mph N/A Snow Light Snow
2:35 PM 32.9 °F 21.3 °F 31.6 °F 95% 29.85 in 4.0 mi WNW 19.6 mph 29.9 mph N/A Snow Light Snow
2:55 PM 33.4 °F 20.8 °F 31.5 °F 92% 29.86 in 5.0 mi WNW 24.2 mph 35.7 mph N/A Snow Light Snow
3:15 PM 33.4 °F 21.1 °F 30.9 °F 90% 29.87 in 7.0 mi WNW 23.0 mph 33.4 mph N/A   Overcast
3:35 PM 33.4 °F 21.7 °F 30.0 °F 87% 29.87 in 10.0 mi WNW 20.7 mph 34.5 mph N/A   Overcast
3:55 PM 33.4 °F 21.1 °F 28.8 °F 83% 29.89 in 10.0 mi WNW 23.0 mph 36.8 mph N/A   Overcast
4:15 PM 33.4 °F 19.6 °F 28.9 °F 84% 29.89 in 10.0 mi WNW 29.9 mph 38.0 mph N/A   Overcast
4:35 PM 33.1 °F 20.3 °F 27.0 °F 78% 29.91 in 10.0 mi WNW 24.2 mph 39.1 mph N/A   Overcast
4:55 PM 33.1 °F 20.9 °F 27.1 °F 79% 29.91 in 10.0 mi West 21.9 mph 32.2 mph N/A   Overcast
5:15 PM 32.4 °F 19.4 °F 25.7 °F 76% 29.92 in 10.0 mi WNW 24.2 mph 34.5 mph N/A   Overcast
5:35 PM 32.0 °F 18.4 °F 24.8 °F 75% 29.93 in 10.0 mi WNW 26.5 mph 36.8 mph N/A   Overcast
5:55 PM 32.0 °F 19.5 °F 23.5 °F 71% 29.94 in 10.0 mi WNW 21.9 mph 33.4 mph N/A   Overcast
6:15 PM 32.0 °F 19.5 °F 23.7 °F 71% 29.94 in 10.0 mi West 21.9 mph 26.5 mph N/A   Overcast
6:35 PM 32.0 °F 19.5 °F 23.9 °F 72% 29.95 in 10.0 mi WNW 21.9 mph 32.2 mph N/A   Overcast
6:55 PM 32.0 °F 20.8 °F 24.4 °F 74% 29.95 in 10.0 mi WNW 17.3 mph 26.5 mph N/A   Overcast
7:15 PM 32.0 °F 19.2 °F 24.8 °F 75% 29.95 in 10.0 mi West 23.0 mph 29.9 mph N/A   Overcast
7:35 PM 32.0 °F 19.5 °F 25.3 °F 76% 29.95 in 10.0 mi WNW 21.9 mph 28.8 mph N/A Snow Light Snow
7:55 PM 32.0 °F 19.5 °F 25.7 °F 78% 29.95 in 10.0 mi West 21.9 mph 28.8 mph N/A Snow Light Snow
8:15 PM 31.8 °F 19.9 °F 26.4 °F 80% 29.95 in 5.0 mi West 19.6 mph 28.8 mph N/A Snow Light Snow
8:35 PM 31.8 °F 19.9 °F 26.6 °F 81% 29.96 in 10.0 mi WNW 19.6 mph 32.2 mph N/A Snow Light Snow
8:55 PM 32.0 °F 19.8 °F 27.1 °F 82% 29.96 in 7.0 mi WNW 20.7 mph 29.9 mph N/A Snow Light Snow
9:15 PM 31.8 °F 19.3 °F 27.1 °F 83% 29.96 in 5.0 mi WNW 21.9 mph 27.6 mph N/A Snow Light Snow
9:35 PM 31.8 °F 19.6 °F 27.0 °F 82% 29.95 in 7.0 mi WNW 20.7 mph 33.4 mph N/A Snow Light Snow
9:55 PM 32.0 °F 18.9 °F 26.4 °F 80% 29.96 in 7.0 mi WNW 24.2 mph 39.1 mph N/A Snow Light Snow
10:15 PM 32.0 °F 18.4 °F 26.4 °F 80% 29.96 in 10.0 mi WNW 26.5 mph 34.5 mph N/A   Overcast
10:35 PM 32.0 °F 19.2 °F 26.4 °F 80% 29.97 in 10.0 mi WNW 23.0 mph 40.3 mph N/A   Overcast
10:55 PM 32.0 °F 20.1 °F 26.4 °F 80% 29.97 in 10.0 mi NW 19.6 mph 38.0 mph N/A   Overcast
11:15 PM 32.0 °F 19.2 °F 26.6 °F 80% 29.98 in 10.0 mi WNW 23.0 mph 31.1 mph N/A   Overcast
11:35 PM 32.0 °F 19.2 °F 26.8 °F 81% 29.99 in 7.0 mi WNW 23.0 mph 38.0 mph N/A   Overcast
11:55 PM 32.0 °F 19.2 °F 27.1 °F 82% 29.99 in 10.0 mi NW 23.0 mph 29.9 mph N/A   Overcast